Regional Weather Roundup
Issued by NWS

Home | Current Version | Previous Version | Text Only | Print | Product List | Glossary On
Versions: 1 2 3 4 5 6 7 8 9 10 11 12 13 14 15 16 17 18 19 20 21 22 23 24 25 26 27 28 29 30 31 32 33 34 35 36 37 38 39 40 41 42 43 44 45 46 47 48 49 50
000
ASUS43 KLSX 051107
RWRMO

WEATHER SUMMARY FOR MISSOURI
NATIONAL WEATHER SERVICE SPRINGFIELD MO
600 AM CDT SUN JUL 05 2015

NOTE: "FAIR" INDICATES FEW OR NO CLOUDS BELOW 12,000 FEET WITH NO
       SIGNIFICANT WEATHER AND/OR OBSTRUCTIONS TO VISIBILITY.
       CURRENT SKY AND/OR WEATHER CONDITIONS ARE NOT AVAILABLE FOR
       CHILLICOTHE AND FARMINGTON.

MOZ001>031-035>038-043-044-053-054-051200-
...NORTHERN AND WESTERN MISSOURI...

CITY           SKY/WX    TMP DP  RH WIND       PRES   REMARKS
KANSAS CTY INT PTCLDY    68  65  90 SE9       29.98R FOG
KANSAS C DTWN  CLEAR     70  66  87 E6        29.97S FOG
LEE`S SUMMIT   CLEAR     69  65  86 SE7       29.99S FOG
ST JOSEPH      PTCLDY    68  64  87 CALM      29.97R FOG
CHILLICOTHE      N/A     64  63  96 CALM      30.01S
KIRKSVILLE     CLEAR     63  61  93 SE6       30.03F FOG

$$
MOZ066>068-077>081-088>096-101>105-051200-
...SOUTHWEST MISSOURI...

CITY           SKY/WX    TMP DP  RH WIND       PRES   REMARKS
SPRINGFIELD    CLOUDY    70  69  97 SE8       30.04R FOG
JOPLIN         CLEAR     70  68  93 S6        30.01R

$$
MOZ032>034-039>042-045>050-055>058-069>072-051200-
...CENTRAL MISSOURI...

CITY           SKY/WX    TMP DP  RH WIND       PRES   REMARKS
COLUMBIA       CLEAR     66  65  96 SE6       30.04R FOG
JEFFERSON CITY CLEAR     67  65  93 E3        30.03R FOG
ROLLA          CLEAR     66  65  96 SE6       30.04S FOG
SEDALIA        CLEAR     67  65  93 S7        30.03R FOG
WHITEMAN AFB   CLEAR     68  67  99 S5        30.00R FOG
WARRENSBURG    CLEAR     66  64  94 SE6       30.00S FOG
OSAGE BEACH    MOCLDY    68  64  88 SE7       30.04R

$$
MOZ051-052-059>065-051200-
...EAST CENTRAL MISSOURI...

CITY           SKY/WX    TMP DP  RH WIND       PRES   REMARKS
ST LOUIS INTL  CLEAR     68  61  78 E3        30.05S HAZE
SPIRIT OF STL  CLEAR     63  62  97 CALM      30.04R FOG
ST CHARLES     CLEAR     66  65  96 E5        30.04S FOG

$$
MOZ072>076-082>087-097>100-106>115-051200-
...SOUTH CENTRAL AND SOUTHEAST MISSOURI...

CITY           SKY/WX    TMP DP  RH WIND       PRES   REMARKS
CAPE GIRARDEAU PTCLDY    66  66 100 S5        30.06R FOG
FARMINGTON     CLOUDY    64  64 100 CALM      30.10S VSB<1/4
POPLAR BLUFF   FOG       69  68  96 CALM      30.05R VSB<1/4
WEST PLAINS    FOG       70  68  93 CALM      30.08R VSB 1/4

$$



USA.gov is the U.S. government's official web portal to all federal, state and local government web resources and services.